[[{"header":{"parameterUnit":"m.s-1","parameterCategory":1,"la1":30.2991,"la2":30.254,"lo1":-89.0895,"lo2":-89.0444,"dy":0.0017,"dx":0.0017,"nx":28,"ny":28,"refTime":"2024-04-05T09:00:00:Z","depth":0,"parameterNumber":2,"parameterNumberName":"U-component_of_WINDS"},"data":[0,0,0,0,0,0,0,0,0,0,0,0,0,0,0,0,0,0,0,0,0,0,0,0,0,0,0,0,0,0,0,0,0,0,0,0,0,0,0,0,0,0,0,0,0,0,0,0,0,0,0,0,0,0,0,0,0,0,-1.5944,-1.5943,0,-1.5842,-1.5841,-1.584,-1.5744,-1.5742,-1.5741,-1.574,-1.5634,-1.5633,-1.5631,0,0,0,0,0,0,0,0,0,0,0,0,0,-1.6055,-1.6053,-1.5944,-1.5943,-1.5942,-1.5842,-1.5841,-1.584,-1.5744,-1.5742,-1.5741,-1.5739,-1.5635,-1.5633,-1.5631,0,0,0,0,0,0,0,0,0,0,0,0,0,-1.5985,-1.6053,-1.5944,-1.5882,-1.5875,-1.5843,-1.5841,-1.5839,-1.5744,-1.5742,-1.574,-1.5739,-1.5635,-1.5633,-1.563,-1.5651,0,0,-1.5623,-1.5622,0,0,0,0,0,0,0,0,-1.5989,-1.5981,-1.5892,-1.5886,-1.5879,-1.5804,-1.5841,-1.5776,-1.5745,-1.5794,-1.574,-1.5738,-1.5692,-1.5685,-1.5669,-1.5646,-1.5641,-1.5622,-1.5621,-1.562,-1.5619,0,0,0,0,0,0,0,-1.5994,-1.5985,-1.5904,-1.5891,-1.5883,-1.5859,-1.5847,-1.5828,-1.5754,-1.5789,-1.5782,-1.5772,-1.5688,-1.5672,-1.5666,-1.564,-1.5622,-1.562,-1.5619,-1.5618,-1.5628,-1.563,0,0,0,0,0,0,-1.6009,-1.599,-1.5907,-1.5901,-1.5931,-1.5858,-1.5845,-1.583,-1.5754,-1.5741,-1.5773,-1.5767,-1.5677,-1.5669,-1.5662,-1.5681,-1.562,-1.5617,-1.5616,-1.5627,-1.5629,-1.5631,0,0,0,0,0,0,-1.6012,-1.6002,-1.5911,-1.5943,-1.593,-1.5858,-1.5842,-1.5829,-1.5813,-1.5742,-1.5728,-1.5771,-1.5676,-1.5666,-1.5655,-1.5676,-1.5616,-1.5614,-1.5624,-1.5627,-1.563,-1.572,0,0,0,0,0,0,-1.6015,-1.6004,-1.6011,-1.5944,-1.5928,-1.5906,-1.5843,-1.5828,-1.5809,-1.58,-1.5736,-1.5724,-1.5673,-1.5659,-1.5652,-1.5672,-1.5612,-1.5622,-1.5626,-1.5629,-1.5715,-1.5725,-1.5734,0,0,0,0,0,-1.602,-1.604,-1.6012,-1.6002,-1.5936,-1.5907,-1.5898,-1.584,-1.5811,-1.5817,-1.5772,-1.5726,-1.5675,-1.5659,-1.565,-1.5669,-1.5621,-1.5625,-1.5629,-1.571,-1.5723,-1.5734,0,0,0,0,0,0,-1.6111,-1.603,-1.5998,-1.5997,-1.596,-1.5891,-1.5897,-1.5856,-1.5825,-1.5819,-1.5748,-1.5734,-1.5731,-1.5699,-1.5682,-1.5685,-1.5642,-1.5644,-1.5706,-1.5718,-1.5728,-1.5735,-1.561,0,0,0,0,0,-1.6131,-1.6114,-1.6045,-1.6051,-1.6034,-1.5969,-1.5954,-1.5914,-1.5871,-1.5855,-1.5809,-1.5769,-1.5745,-1.573,-1.5703,-1.571,-1.5694,-1.5719,-1.5729,-1.5737,-1.574,-1.5742,-1.5752,-1.5644,-1.5644,-1.5644,0,0,-1.6172,-1.6126,-1.612,-1.6068,-1.6034,-1.6019,-1.5956,-1.5942,-1.593,-1.5852,-1.5839,-1.5804,-1.5756,-1.5754,-1.5751,-1.5727,-1.5767,-1.5742,-1.575,-1.5748,-1.5747,-1.5757,-1.5766,-1.5647,-1.5646,-1.5646,0,0,-1.6239,-1.6203,-1.6204,-1.6172,-1.6121,-1.6078,-1.6079,-1.6016,-1.599,-1.5976,-1.5918,-1.5902,-1.5861,-1.5829,-1.5807,-1.5864,-1.582,-1.5858,-1.5909,-1.5911,-1.592,-1.5927,-1.5947,-1.5955,-1.5861,-1.5861,-1.5861,0,-1.6296,-1.627,-1.621,-1.62,-1.6179,-1.6109,-1.611,-1.6081,-1.6025,-1.6012,-1.5986,-1.5934,-1.5896,-1.5886,-1.59,-1.5885,-1.5883,-1.5864,-1.5924,-1.593,-1.5936,-1.5954,-1.5962,-1.5866,-1.5865,-1.5865,-1.5864,0,-1.6344,-1.6327,-1.6334,-1.6282,-1.6262,-1.6258,-1.6196,-1.6183,-1.6145,-1.6105,-1.6091,-1.6044,-1.6007,-1.6002,-1.5963,-1.5986,-1.5973,-1.5937,-1.5891,-1.5952,-1.5968,-1.5975,-1.5873,-1.5871,-1.5869,-1.5868,0,0,-1.6464,-1.6379,-1.6383,-1.6359,-1.6299,-1.6285,-1.6277,-1.6242,-1.6232,-1.6196,-1.6188,-1.6155,-1.6122,-1.6097,-1.6055,-1.6057,-1.6105,-1.602,-1.6018,-1.6037,-1.6128,-1.6156,-1.6165,-1.6076,-1.6078,-1.6078,-1.6132,0,-1.652,-1.6503,-1.6449,-1.6448,-1.6432,-1.6366,-1.636,-1.6322,-1.6285,-1.6266,-1.6224,-1.6203,-1.616,-1.6145,-1.6144,-1.61,-1.6122,-1.6095,-1.6068,-1.6068,-1.6082,-1.6173,-1.6202,-1.6255,-1.6138,-1.6139,-1.614,0,-1.6584,-1.6553,-1.6551,-1.6492,-1.6483,-1.6479,-1.6442,-1.6425,-1.6381,-1.6354,-1.6328,-1.6281,-1.6269,-1.6228,-1.6211,-1.6194,-1.618,-1.6157,-1.6157,-1.6152,-1.6107,-1.617,-1.627,-1.6278,-1.6149,-1.6148,-1.6148,0,-1.6672,-1.6629,-1.6622,-1.6604,-1.6536,-1.6534,-1.6505,-1.646,-1.6442,-1.641,-1.6398,-1.6365,-1.6347,-1.6323,-1.6269,-1.6243,-1.6258,-1.6212,-1.6235,-1.6236,-1.624,-1.6241,-1.6339,-1.6232,-1.6232,-1.6232,-1.6232,0,-1.674,-1.6741,-1.6661,-1.6657,-1.6657,-1.6595,-1.6596,-1.6561,-1.6522,-1.651,-1.6451,-1.6441,-1.637,-1.6352,-1.6309,-1.6302,-1.6294,-1.6272,-1.626,-1.6276,-1.6279,-1.6266,-1.626,-1.6234,-1.6234,-1.6233,-1.6233,0,-1.6838,-1.6784,-1.6772,-1.6709,-1.6693,-1.6696,-1.6642,-1.6635,-1.6595,-1.6581,-1.6574,-1.651,-1.6486,-1.643,-1.639,-1.6361,-1.6365,-1.6344,-1.638,-1.6373,-1.6399,-1.6397,-1.6492,-1.6501,-1.6389,-1.639,-1.6391,0,-1.6885,-1.6884,-1.6821,-1.6809,-1.6783,-1.6765,-1.6747,-1.6686,-1.6669,-1.6621,-1.662,-1.6592,-1.6565,-1.6529,-1.648,-1.6449,-1.6427,-1.6463,-1.6422,-1.6439,-1.6428,-1.6428,-1.6428,-1.6471,-1.6473,-1.6474,-1.6475,0,-1.6974,-1.6948,-1.6924,-1.6892,-1.6872,-1.6844,-1.6812,-1.6805,-1.6737,-1.6721,-1.6696,-1.6676,-1.6636,-1.6608,-1.6571,-1.6541,-1.6497,-1.6489,-1.6492,-1.6509,-1.6529,-1.6518,-1.6404,-1.6486,-1.6485,-1.6484,-1.6484,-1.6483,-1.7047,-1.7044,-1.7,-1.6976,-1.6946,-1.6918,-1.6909,-1.6868,-1.6846,-1.6809,-1.6774,-1.6753,-1.671,-1.6655,-1.6628,-1.661,-1.6588,-1.6593,-1.6594,-1.6597,-1.6604,-1.6533,-1.6603,-1.6603,-1.6602,-1.6602,-1.6602,0,-1.7134,-1.7102,-1.7081,-1.7038,-1.702,-1.6981,-1.6944,-1.6931,-1.6913,-1.6877,-1.6852,-1.6824,-1.6797,-1.6746,-1.6714,-1.671,-1.6689,-1.6703,-1.6703,-1.6697,-1.6626,-1.6626,-1.6721,-1.6721,-1.6721,-1.6721,-1.6721,-1.6721,-1.7176,-1.7169,-1.7138,-1.7115,-1.7083,-1.7062,-1.7044,-1.7018,-1.6989,-1.696,-1.6938,-1.6905,-1.6863,-1.6828,-1.6801,-1.6787,-1.6778,-1.6799,-1.6779,-1.6713,-1.6702,-1.6691,-1.6691,-1.6798,-1.6798,-1.6851,-1.6852,-1.6852]},{"header":{"parameterUnit":"m.s-1","parameterCategory":1,"la1":30.2991,"la2":30.254,"lo1":-89.0895,"lo2":-89.0444,"dy":0.0017,"dx":0.0017,"nx":28,"ny":28,"refTime":"2024-04-05T09:00:00:Z","depth":0,"parameterNumber":3,"parameterNumberName":"V-component_of_WINDS"},"data":[0,0,0,0,0,0,0,0,0,0,0,0,0,0,0,0,0,0,0,0,0,0,0,0,0,0,0,0,0,0,0,0,0,0,0,0,0,0,0,0,0,0,0,0,0,0,0,0,0,0,0,0,0,0,0,0,0,0,3.0186,3.0186,0,3.0201,3.0201,3.0202,3.0196,3.0196,3.0195,3.0195,3.0209,3.021,3.021,0,0,0,0,0,0,0,0,0,0,0,0,0,3.015,3.015,3.0186,3.0186,3.0186,3.0201,3.0201,3.0202,3.0196,3.0195,3.0195,3.0195,3.0209,3.0209,3.021,0,0,0,0,0,0,0,0,0,0,0,0,0,3.0165,3.0151,3.0186,3.0185,3.0185,3.0201,3.0201,3.0202,3.0196,3.0195,3.0195,3.0194,3.0208,3.0209,3.021,3.0227,0,0,3.0214,3.0214,0,0,0,0,0,0,0,0,3.0164,3.0166,3.0185,3.0185,3.0185,3.0196,3.0194,3.021,3.0196,3.0192,3.0195,3.0194,3.0205,3.0206,3.021,3.0228,3.0228,3.0214,3.0214,3.0215,3.0215,0,0,0,0,0,0,0,3.0163,3.0166,3.0192,3.0185,3.0186,3.0184,3.0185,3.0197,3.0201,3.0192,3.0192,3.0194,3.0205,3.0209,3.021,3.0229,3.0214,3.0215,3.0215,3.0216,3.0261,3.0261,0,0,0,0,0,0,3.0162,3.0165,3.0191,3.0192,3.0173,3.0185,3.0186,3.0193,3.0201,3.0202,3.0194,3.0194,3.0208,3.0209,3.0211,3.0231,3.0215,3.0216,3.0216,3.026,3.0261,3.0262,0,0,0,0,0,0,3.0162,3.0165,3.0191,3.0179,3.0182,3.0186,3.0193,3.0194,3.0198,3.0203,3.0203,3.0198,3.0207,3.0209,3.0223,3.0232,3.0216,3.0217,3.026,3.026,3.0261,3.0272,0,0,0,0,0,0,3.0161,3.0165,3.0171,3.0179,3.0182,3.0203,3.0194,3.0194,3.02,3.0199,3.0206,3.0207,3.0207,3.0222,3.0224,3.0233,3.0218,3.0259,3.026,3.0261,3.0271,3.0273,3.0275,0,0,0,0,0,3.0159,3.0173,3.0172,3.0175,3.0191,3.0204,3.0206,3.0206,3.0201,3.0207,3.021,3.0207,3.023,3.0223,3.0226,3.0235,3.0258,3.026,3.0261,3.027,3.0272,3.0275,0,0,0,0,0,0,3.0166,3.0174,3.0173,3.019,3.0196,3.0203,3.0211,3.0209,3.0217,3.0216,3.0216,3.0217,3.0232,3.0235,3.0227,3.0251,3.0243,3.0245,3.0249,3.0252,3.0254,3.0252,3.0219,0,0,0,0,0,3.017,3.018,3.0186,3.0201,3.0204,3.0207,3.0213,3.0213,3.0219,3.0222,3.0226,3.0232,3.024,3.0246,3.0254,3.0271,3.0272,3.0278,3.028,3.0282,3.0284,3.0292,3.0295,3.0266,3.0266,3.0266,0,0,3.0177,3.0183,3.0189,3.0202,3.0207,3.0217,3.021,3.022,3.0228,3.0223,3.0237,3.024,3.0246,3.0262,3.0269,3.0265,3.0292,3.0284,3.0285,3.0286,3.0294,3.0297,3.0299,3.0267,3.0266,3.0266,0,0,3.0195,3.0201,3.0213,3.0219,3.0227,3.0229,3.0232,3.0239,3.0241,3.0255,3.0252,3.026,3.0275,3.028,3.0285,3.0305,3.0302,3.0308,3.0318,3.0327,3.0329,3.0331,3.0338,3.0341,3.0309,3.0309,3.0309,0,3.0203,3.0219,3.022,3.0232,3.0237,3.0234,3.0247,3.0251,3.0262,3.0265,3.0261,3.028,3.0284,3.03,3.0306,3.0309,3.0312,3.0307,3.0329,3.0331,3.0333,3.034,3.0342,3.031,3.031,3.031,3.031,0,3.0228,3.0239,3.0248,3.0259,3.0265,3.0277,3.028,3.0286,3.0285,3.0288,3.0301,3.0307,3.0316,3.032,3.0319,3.0336,3.0333,3.0329,3.0321,3.0336,3.0343,3.0345,3.0311,3.0311,3.031,3.031,0,0,3.0251,3.0263,3.0266,3.0271,3.0279,3.0287,3.0299,3.0309,3.0314,3.0321,3.033,3.0344,3.034,3.0345,3.0344,3.0352,3.0368,3.0346,3.0347,3.035,3.0386,3.039,3.0393,3.0366,3.0366,3.0367,3.0386,0,3.027,3.0291,3.0293,3.0311,3.0321,3.0319,3.0328,3.0335,3.0337,3.0345,3.0348,3.0357,3.0351,3.0354,3.0362,3.0364,3.0375,3.0363,3.0374,3.0374,3.0372,3.0396,3.04,3.0418,3.0388,3.0389,3.0389,0,3.0296,3.0304,3.0324,3.0331,3.0336,3.0345,3.0354,3.0362,3.0368,3.037,3.0375,3.0374,3.0385,3.0377,3.0392,3.0384,3.0388,3.039,3.0391,3.0392,3.0383,3.0398,3.0423,3.0426,3.0393,3.0393,3.0392,0,3.031,3.0327,3.0341,3.0345,3.0354,3.036,3.0364,3.037,3.0376,3.0384,3.0387,3.0396,3.0401,3.0407,3.0408,3.0402,3.0423,3.0415,3.0424,3.0424,3.0429,3.0428,3.0455,3.0432,3.0432,3.0432,3.0432,0,3.0332,3.0344,3.0348,3.0356,3.037,3.0371,3.0384,3.0387,3.0393,3.0402,3.04,3.0408,3.0408,3.0417,3.0417,3.043,3.0432,3.0433,3.0433,3.0433,3.0433,3.0436,3.0434,3.0432,3.0432,3.0432,3.0432,0,3.035,3.0353,3.0369,3.0376,3.0378,3.0388,3.0394,3.0402,3.0404,3.0415,3.0418,3.0421,3.0431,3.0432,3.0443,3.0444,3.0459,3.0457,3.0457,3.0456,3.0466,3.0465,3.0495,3.0499,3.0473,3.0474,3.0474,0,3.0364,3.0373,3.0382,3.0388,3.0392,3.0402,3.0408,3.0409,3.0416,3.0424,3.0431,3.044,3.0448,3.0463,3.0466,3.0475,3.0474,3.0484,3.0475,3.0475,3.0474,3.0473,3.0474,3.0486,3.0486,3.0486,3.0486,0,3.0387,3.0388,3.0397,3.0407,3.0414,3.0422,3.0429,3.0434,3.0436,3.0443,3.0453,3.0459,3.0471,3.048,3.0488,3.0492,3.0489,3.0489,3.0492,3.0492,3.0491,3.0492,3.0461,3.0488,3.0488,3.0488,3.0488,3.0488,3.0404,3.0412,3.0419,3.0429,3.0435,3.0442,3.045,3.0453,3.0462,3.0472,3.0472,3.0483,3.0489,3.05,3.0504,3.0512,3.0509,3.0513,3.0514,3.0514,3.0515,3.049,3.0514,3.0514,3.0514,3.0514,3.0514,0,3.0427,3.0432,3.0441,3.0451,3.0459,3.0457,3.0464,3.0471,3.0481,3.0487,3.0495,3.0506,3.0515,3.0519,3.0528,3.0534,3.0533,3.0536,3.0536,3.0536,3.0518,3.0515,3.0537,3.0537,3.0537,3.0537,3.0537,3.0537,3.044,3.0454,3.0456,3.0472,3.0477,3.0488,3.0493,3.0498,3.0503,3.0517,3.0524,3.0527,3.0532,3.0541,3.0549,3.055,3.0553,3.0557,3.0557,3.054,3.0538,3.0535,3.0533,3.0558,3.0558,3.0575,3.0575,3.0576]}]]